Location: Newark
(52.3500°N, 175.9667°E)
Time: 22:05:57
(UTC+00:00)

Altair - Pass Details

Date: 26 April 2021
Orbit: 1501 x 1683 km, 47.2° (Epoch: 05 May)

Event Time Altitude Azimuth Distance (km) Brightness Sun altitude
Rises 16:16:36 0° 222° (SW) 4,908 - -5.9°
Exits shadow 16:17:59 - 220° (SW) 4,495 9.3 -5.7°
Reaches altitude 10° 16:19:59 10° 216° (SW) 3,907 9.1 -5.4°
Maximum altitude 16:29:08 43° 150° (SSE) 2,158 8.3 -4.2°
Drops below altitude 10° 16:38:01 10° 83° (E) 3,793 11.0 -3.0°
Sets 16:41:14 0° 77° (ENE) 4,754 12.1 -2.6°
